Time,TemperatureF,DewpointF,PressureIn,WindDirection,WindDirectionDegrees,WindSpeedMPH,WindSpeedGustMPH,Humidity,HourlyPrecipIn,Conditions,Clouds,dailyrainin,SoftwareType,DateUTC
2013-07-23 00:01:00,81.1,75.1,30.05,West,280,0.0,0.0,82,0.00,,---,0.00,VWS V13.01,2013-07-23 04:01:00,
2013-07-23 00:02:00,81.1,75.1,30.05,SW,226,0.0,0.0,82,0.00,,---,0.00,VWS V13.01,2013-07-23 04:02:00,
2013-07-23 00:08:00,81.1,75.1,30.05,West,270,0.0,0.0,82,0.00,,---,0.00,VWS V13.01,2013-07-23 04:08:00,
2013-07-23 00:12:00,81.0,75.0,30.05,West,270,0.0,0.0,82,0.00,,---,0.00,VWS V13.01,2013-07-23 04:12:00,
2013-07-23 00:17:00,80.9,75.3,30.05,West,270,0.0,0.0,83,0.00,,---,0.00,VWS V13.01,2013-07-23 04:17:00,
2013-07-23 00:22:00,80.7,75.1,30.05,West,270,0.0,0.0,83,0.00,,---,0.00,VWS V13.01,2013-07-23 04:22:00,
2013-07-23 00:27:00,80.6,75.0,30.04,West,270,0.0,0.0,83,0.00,,---,0.00,VWS V13.01,2013-07-23 04:27:00,
2013-07-23 00:33:00,80.5,74.9,30.04,West,270,0.0,0.0,83,0.00,,---,0.00,VWS V13.01,2013-07-23 04:33:00,
2013-07-23 00:37:00,80.4,74.8,30.04,West,270,0.0,0.0,83,0.00,,---,0.00,VWS V13.01,2013-07-23 04:37:00,
2013-07-23 00:42:00,80.3,74.7,30.05,West,270,0.0,0.0,83,0.00,,---,0.00,VWS V13.01,2013-07-23 04:42:00,
2013-07-23 00:47:00,80.2,74.6,30.05,West,270,0.0,0.0,83,0.00,,---,0.00,VWS V13.01,2013-07-23 04:47:00,
2013-07-23 00:52:00,80.3,74.7,30.05,West,270,0.0,0.0,83,0.00,,---,0.00,VWS V13.01,2013-07-23 04:52:00,
2013-07-23 00:57:00,80.2,74.6,30.04,West,270,0.0,0.0,83,0.00,,---,0.00,VWS V13.01,2013-07-23 04:57:00,
2013-07-23 01:02:00,80.2,74.6,30.04,West,270,0.0,0.0,83,0.00,,---,0.00,VWS V13.01,2013-07-23 05:02:00,
2013-07-23 01:07:00,80.1,74.5,30.04,West,270,0.0,0.0,83,0.00,,---,0.00,VWS V13.01,2013-07-23 05:07:00,
2013-07-23 01:12:00,80.1,74.5,30.04,West,269,0.0,0.0,83,0.00,,---,0.00,VWS V13.01,2013-07-23 05:12:00,
2013-07-23 01:18:00,80.0,74.4,30.04,West,269,0.0,0.0,83,0.00,,---,0.00,VWS V13.01,2013-07-23 05:18:00,
2013-07-23 01:22:00,80.0,74.4,30.04,West,269,0.0,0.0,83,0.00,,---,0.00,VWS V13.01,2013-07-23 05:22:00,
2013-07-23 01:27:00,79.9,74.3,30.04,West,269,0.0,0.0,83,0.00,,---,0.00,VWS V13.01,2013-07-23 05:27:00,
2013-07-23 01:33:00,79.8,74.2,30.04,West,269,0.0,0.0,83,0.00,,---,0.00,VWS V13.01,2013-07-23 05:33:00,
2013-07-23 01:38:00,79.8,74.2,30.04,West,270,0.0,0.0,83,0.00,,---,0.00,VWS V13.01,2013-07-23 05:38:00,
2013-07-23 01:43:00,79.8,74.2,30.05,West,279,0.0,0.0,83,0.00,,---,0.00,VWS V13.01,2013-07-23 05:43:00,
2013-07-23 01:48:00,80.0,74.4,30.05,West,276,0.0,0.0,83,0.00,,---,0.00,VWS V13.01,2013-07-23 05:48:00,
2013-07-23 01:53:00,80.2,74.6,30.04,West,276,0.0,0.0,83,0.00,,---,0.00,VWS V13.01,2013-07-23 05:53:00,
2013-07-23 01:58:00,80.4,74.8,30.04,West,276,0.0,0.0,83,0.00,,---,0.00,VWS V13.01,2013-07-23 05:58:00,
2013-07-23 02:03:00,80.4,74.8,30.04,West,267,0.0,0.0,83,0.00,,---,0.00,VWS V13.01,2013-07-23 06:03:00,
2013-07-23 02:08:00,80.4,74.8,30.04,West,267,0.0,0.0,83,0.00,,---,0.00,VWS V13.01,2013-07-23 06:08:00,
2013-07-23 02:13:00,80.5,74.9,30.04,West,267,0.0,0.0,83,0.00,,---,0.00,VWS V13.01,2013-07-23 06:13:00,
2013-07-23 02:18:00,80.4,74.8,30.04,West,267,0.0,0.0,83,0.00,,---,0.00,VWS V13.01,2013-07-23 06:18:00,
2013-07-23 02:23:00,80.4,74.8,30.04,West,279,0.0,0.0,83,0.00,,---,0.00,VWS V13.01,2013-07-23 06:23:00,
2013-07-23 02:28:00,80.5,74.9,30.04,West,279,0.0,0.0,83,0.00,,---,0.00,VWS V13.01,2013-07-23 06:28:00,
2013-07-23 02:33:00,80.6,75.0,30.03,WNW,288,0.0,0.0,83,0.00,,---,0.00,VWS V13.01,2013-07-23 06:33:00,
2013-07-23 02:38:00,80.8,75.2,30.03,WNW,288,0.0,0.0,83,0.00,,---,0.00,VWS V13.01,2013-07-23 06:38:00,
2013-07-23 02:43:00,80.8,75.2,30.03,West,273,0.0,0.0,83,0.00,,---,0.00,VWS V13.01,2013-07-23 06:43:00,
2013-07-23 02:48:00,80.9,75.3,30.03,West,273,0.0,0.0,83,0.00,,---,0.00,VWS V13.01,2013-07-23 06:48:00,
2013-07-23 02:53:00,80.9,75.3,30.03,West,273,0.0,0.0,83,0.00,,---,0.00,VWS V13.01,2013-07-23 06:53:00,
2013-07-23 02:58:00,80.8,75.2,30.02,West,273,0.0,0.0,83,0.00,,---,0.00,VWS V13.01,2013-07-23 06:58:00,
2013-07-23 03:03:00,80.8,75.2,30.02,West,273,0.0,0.0,83,0.00,,---,0.00,VWS V13.01,2013-07-23 07:03:00,
2013-07-23 03:08:00,80.9,75.3,30.02,West,272,0.0,0.0,83,0.00,,---,0.00,VWS V13.01,2013-07-23 07:08:00,
2013-07-23 03:13:00,80.9,75.3,30.02,West,272,0.0,0.0,83,0.00,,---,0.00,VWS V13.01,2013-07-23 07:13:00,
2013-07-23 03:18:00,80.8,75.2,30.02,West,271,0.0,0.0,83,0.00,,---,0.00,VWS V13.01,2013-07-23 07:18:00,
2013-07-23 03:23:00,80.9,75.3,30.02,West,273,0.0,0.0,83,0.00,,---,0.00,VWS V13.01,2013-07-23 07:23:00,
2013-07-23 03:28:00,80.9,74.9,30.02,West,276,0.0,0.0,82,0.00,,---,0.00,VWS V13.01,2013-07-23 07:28:00,
2013-07-23 03:33:00,81.0,75.0,30.02,West,281,0.0,0.0,82,0.00,,---,0.00,VWS V13.01,2013-07-23 07:33:00,
2013-07-23 03:34:00,81.0,75.0,30.02,West,278,0.0,0.0,82,0.00,,---,0.00,VWS V13.01,2013-07-23 07:34:00,
2013-07-23 03:39:00,81.1,75.1,30.02,WSW,242,0.0,0.0,82,0.00,,---,0.00,VWS V13.01,2013-07-23 07:39:00,
2013-07-23 03:44:00,81.1,75.1,30.02,WSW,250,0.0,0.0,82,0.00,,---,0.00,VWS V13.01,2013-07-23 07:44:00,
2013-07-23 03:49:00,81.1,75.1,30.02,WSW,250,0.0,0.0,82,0.00,,---,0.00,VWS V13.01,2013-07-23 07:49:00,
2013-07-23 03:54:00,81.0,75.0,30.01,WNW,296,0.0,3.0,82,0.00,,---,0.00,VWS V13.01,2013-07-23 07:54:00,
2013-07-23 03:59:00,81.1,75.1,30.01,West,279,0.0,3.0,82,0.00,,---,0.00,VWS V13.01,2013-07-23 07:59:00,
2013-07-23 04:04:00,81.1,75.1,30.01,West,278,0.0,0.0,82,0.00,,---,0.00,VWS V13.01,2013-07-23 08:04:00,
2013-07-23 04:09:00,81.1,75.1,30.01,West,272,0.0,0.0,82,0.00,,---,0.00,VWS V13.01,2013-07-23 08:09:00,
2013-07-23 04:14:00,81.1,75.1,30.01,WNW,289,0.0,0.0,82,0.00,,---,0.00,VWS V13.01,2013-07-23 08:14:00,
2013-07-23 04:19:00,81.2,75.2,30.01,West,273,0.0,1.0,82,0.00,,---,0.00,VWS V13.01,2013-07-23 08:19:00,
2013-07-23 04:24:00,81.1,75.1,30.00,West,269,0.0,1.0,82,0.00,,---,0.00,VWS V13.01,2013-07-23 08:24:00,
2013-07-23 04:29:00,81.1,75.1,30.00,West,269,0.0,1.0,82,0.00,,---,0.00,VWS V13.01,2013-07-23 08:29:00,
2013-07-23 04:34:00,81.0,75.0,30.00,West,271,0.0,0.0,82,0.00,,---,0.00,VWS V13.01,2013-07-23 08:34:00,
2013-07-23 04:39:00,81.0,75.0,30.00,West,271,0.0,0.0,82,0.00,,---,0.00,VWS V13.01,2013-07-23 08:39:00,
2013-07-23 04:44:00,80.9,74.9,30.00,West,271,0.0,0.0,82,0.00,,---,0.00,VWS V13.01,2013-07-23 08:44:00,
2013-07-23 04:49:00,80.9,74.9,30.00,West,274,0.0,0.0,82,0.00,,---,0.00,VWS V13.01,2013-07-23 08:49:00,
2013-07-23 04:54:00,80.9,74.9,30.00,WNW,299,0.0,0.0,82,0.00,,---,0.00,VWS V13.01,2013-07-23 08:54:00,
2013-07-23 04:59:00,80.9,74.9,30.00,WNW,299,0.0,0.0,82,0.00,,---,0.00,VWS V13.01,2013-07-23 08:59:00,
2013-07-23 05:04:00,80.9,74.9,30.00,South,185,0.0,1.0,82,0.00,,---,0.00,VWS V13.01,2013-07-23 09:04:00,
2013-07-23 05:09:00,80.8,74.8,29.99,South,186,0.0,1.0,82,0.00,,---,0.00,VWS V13.01,2013-07-23 09:09:00,
2013-07-23 05:14:00,80.7,74.7,29.99,SW,219,0.0,1.0,82,0.00,,---,0.00,VWS V13.01,2013-07-23 09:14:00,
2013-07-23 05:19:00,80.6,74.6,29.99,SW,219,0.0,1.0,82,0.00,,---,0.00,VWS V13.01,2013-07-23 09:19:00,
2013-07-23 05:24:00,80.5,74.5,29.99,SW,219,0.0,1.0,82,0.00,,---,0.00,VWS V13.01,2013-07-23 09:24:00,
2013-07-23 05:29:00,80.4,74.4,29.99,SSW,201,0.0,1.0,82,0.00,,---,0.00,VWS V13.01,2013-07-23 09:29:00,
2013-07-23 05:34:00,80.4,74.4,29.99,SSW,202,0.0,0.0,82,0.00,,---,0.00,VWS V13.01,2013-07-23 09:34:00,
2013-07-23 05:39:00,80.3,74.3,29.99,West,263,0.0,0.0,82,0.00,,---,0.00,VWS V13.01,2013-07-23 09:39:00,
2013-07-23 05:44:00,80.3,74.3,29.99,West,268,0.0,0.0,82,0.00,,---,0.00,VWS V13.01,2013-07-23 09:44:00,
2013-07-23 05:49:00,80.2,74.2,29.99,SW,220,0.0,0.0,82,0.00,,---,0.00,VWS V13.01,2013-07-23 09:49:00,
2013-07-23 05:55:00,80.2,74.2,29.99,South,190,0.0,0.0,82,0.00,,---,0.00,VWS V13.01,2013-07-23 09:55:00,
2013-07-23 06:00:00,80.2,74.2,29.99,SSW,197,0.0,0.0,82,0.00,,---,0.00,VWS V13.01,2013-07-23 10:00:00,
2013-07-23 06:05:00,80.2,74.2,29.99,SSW,210,0.0,0.0,82,0.00,,---,0.00,VWS V13.01,2013-07-23 10:05:00,
2013-07-23 06:10:00,80.2,74.2,29.99,SSE,166,0.0,0.0,82,0.00,,---,0.00,VWS V13.01,2013-07-23 10:10:00,
2013-07-23 06:15:00,80.2,74.2,29.99,SSE,167,0.0,0.0,82,0.00,,---,0.00,VWS V13.01,2013-07-23 10:15:00,
2013-07-23 06:20:00,80.2,74.2,30.00,South,171,0.0,0.0,82,0.00,,---,0.00,VWS V13.01,2013-07-23 10:20:00,
2013-07-23 06:25:00,80.2,74.2,30.00,South,171,0.0,0.0,82,0.00,,---,0.00,VWS V13.01,2013-07-23 10:25:00,
2013-07-23 06:29:00,80.2,74.2,30.00,South,175,0.0,0.0,82,0.00,,---,0.00,VWS V13.01,2013-07-23 10:29:00,
2013-07-23 06:34:00,80.1,74.5,30.01,South,175,0.0,0.0,83,0.00,,---,0.00,VWS V13.01,2013-07-23 10:34:00,
2013-07-23 06:40:00,80.1,74.5,30.01,South,175,0.0,0.0,83,0.00,,---,0.00,VWS V13.01,2013-07-23 10:40:00,
2013-07-23 06:44:00,80.2,74.6,30.02,WNW,299,0.0,0.0,83,0.00,,---,0.00,VWS V13.01,2013-07-23 10:44:00,
2013-07-23 06:50:00,80.2,74.6,30.02,WNW,295,0.0,0.0,83,0.00,,---,0.00,VWS V13.01,2013-07-23 10:50:00,
2013-07-23 06:55:00,80.3,74.7,30.02,WNW,296,0.0,0.0,83,0.00,,---,0.00,VWS V13.01,2013-07-23 10:55:00,
2013-07-23 07:00:00,80.3,74.7,30.02,NW,313,0.0,0.0,83,0.00,,---,0.00,VWS V13.01,2013-07-23 11:00:00,
2013-07-23 07:05:00,80.2,74.2,30.03,NW,313,0.0,0.0,82,0.00,,---,0.00,VWS V13.01,2013-07-23 11:05:00,
2013-07-23 07:10:00,80.2,74.2,30.03,NW,313,0.0,0.0,82,0.00,,---,0.00,VWS V13.01,2013-07-23 11:10:00,
2013-07-23 07:15:00,80.3,74.3,30.03,NW,311,0.0,0.0,82,0.00,,---,0.00,VWS V13.01,2013-07-23 11:15:00,
2013-07-23 07:20:00,80.3,74.7,30.03,NW,311,0.0,0.0,83,0.00,,---,0.00,VWS V13.01,2013-07-23 11:20:00,
2013-07-23 07:25:00,80.5,74.5,30.03,WNW,298,0.0,0.0,82,0.00,,---,0.00,VWS V13.01,2013-07-23 11:25:00,
2013-07-23 07:30:00,80.7,74.7,30.03,WSW,256,0.0,0.0,82,0.00,,---,0.00,VWS V13.01,2013-07-23 11:30:00,
2013-07-23 07:35:00,80.9,74.9,30.04,West,273,0.0,0.0,82,0.00,,---,0.00,VWS V13.01,2013-07-23 11:35:00,
2013-07-23 07:40:00,81.1,74.7,30.04,WNW,288,0.0,0.0,81,0.00,,---,0.00,VWS V13.01,2013-07-23 11:40:00,
2013-07-23 07:45:00,81.2,74.8,30.04,West,277,0.0,0.0,81,0.00,,---,0.00,VWS V13.01,2013-07-23 11:45:00,
2013-07-23 07:50:00,81.4,74.6,30.04,West,277,0.0,0.0,80,0.00,,---,0.00,VWS V13.01,2013-07-23 11:50:00,
2013-07-23 07:55:00,81.6,74.8,30.04,West,277,0.0,0.0,80,0.00,,---,0.00,VWS V13.01,2013-07-23 11:55:00,
2013-07-23 08:00:00,81.8,75.4,30.04,WNW,290,0.0,0.0,81,0.00,,---,0.00,VWS V13.01,2013-07-23 12:00:00,
2013-07-23 08:05:00,82.0,75.2,30.04,West,265,0.0,0.0,80,0.00,,---,0.00,VWS V13.01,2013-07-23 12:05:00,
2013-07-23 08:10:00,82.2,75.0,30.04,West,273,0.0,0.0,79,0.00,,---,0.00,VWS V13.01,2013-07-23 12:10:00,
2013-07-23 08:15:00,82.4,75.6,30.04,West,278,0.0,0.0,80,0.00,,---,0.00,VWS V13.01,2013-07-23 12:15:00,
2013-07-23 08:20:00,82.5,75.7,30.04,WNW,284,0.0,0.0,80,0.00,,---,0.00,VWS V13.01,2013-07-23 12:20:00,
2013-07-23 08:25:00,82.7,75.9,30.04,WNW,282,0.0,0.0,80,0.00,,---,0.00,VWS V13.01,2013-07-23 12:25:00,
2013-07-23 08:30:00,82.9,75.7,30.05,West,259,0.0,0.0,79,0.00,,---,0.00,VWS V13.01,2013-07-23 12:30:00,
2013-07-23 08:35:00,83.2,76.0,30.05,WSW,254,0.0,0.0,79,0.00,,---,0.00,VWS V13.01,2013-07-23 12:35:00,
2013-07-23 08:40:00,83.2,75.6,30.04,WNW,283,0.0,1.0,78,0.00,,---,0.00,VWS V13.01,2013-07-23 12:40:00,
2013-07-23 08:45:00,83.3,75.7,30.05,West,277,0.0,1.0,78,0.00,,---,0.00,VWS V13.01,2013-07-23 12:45:00,
2013-07-23 08:50:00,83.6,75.6,30.05,WNW,289,0.0,1.0,77,0.00,,---,0.00,VWS V13.01,2013-07-23 12:50:00,
2013-07-23 08:55:00,83.8,75.8,30.04,WNW,282,0.0,1.0,77,0.00,,---,0.00,VWS V13.01,2013-07-23 12:55:00,
2013-07-23 09:00:00,84.0,76.0,30.05,WNW,282,0.0,0.0,77,0.00,,---,0.00,VWS V13.01,2013-07-23 13:00:00,
2013-07-23 09:05:00,84.1,75.7,30.05,West,275,0.0,0.0,76,0.00,,---,0.00,VWS V13.01,2013-07-23 13:05:00,
2013-07-23 09:10:00,84.3,75.9,30.05,SW,220,0.0,0.0,76,0.00,,---,0.00,VWS V13.01,2013-07-23 13:10:00,
2013-07-23 09:15:00,84.8,76.8,30.05,SW,215,0.0,0.0,77,0.00,,---,0.00,VWS V13.01,2013-07-23 13:15:00,
2013-07-23 09:20:00,84.9,76.5,30.05,WSW,240,0.0,0.0,76,0.00,,---,0.00,VWS V13.01,2013-07-23 13:20:00,
2013-07-23 09:25:00,85.0,76.2,30.05,WNW,283,0.0,0.0,75,0.00,,---,0.00,VWS V13.01,2013-07-23 13:25:00,
2013-07-23 09:30:00,85.0,76.2,30.05,WNW,300,0.0,0.0,75,0.00,,---,0.00,VWS V13.01,2013-07-23 13:30:00,
2013-07-23 09:35:00,85.1,76.3,30.05,WSW,254,0.0,0.0,75,0.00,,---,0.00,VWS V13.01,2013-07-23 13:35:00,
2013-07-23 09:40:00,85.1,76.3,30.05,West,280,0.0,0.0,75,0.00,,---,0.00,VWS V13.01,2013-07-23 13:40:00,
2013-07-23 09:45:00,85.3,76.9,30.05,WSW,241,0.0,0.0,76,0.00,,---,0.00,VWS V13.01,2013-07-23 13:45:00,
2013-07-23 09:50:00,85.6,76.4,30.05,South,169,0.0,0.0,74,0.00,,---,0.00,VWS V13.01,2013-07-23 13:50:00,
2013-07-23 09:55:00,85.7,76.1,30.05,West,273,0.0,2.0,73,0.00,,---,0.00,VWS V13.01,2013-07-23 13:55:00,
2013-07-23 10:00:00,85.5,75.9,30.05,WNW,297,0.0,0.0,73,0.00,,---,0.00,VWS V13.01,2013-07-23 14:00:00,
2013-07-23 10:05:00,85.7,76.5,30.05,WNW,283,0.0,0.0,74,0.00,,---,0.00,VWS V13.01,2013-07-23 14:05:00,
2013-07-23 10:10:00,85.8,76.6,30.05,West,265,0.0,6.0,74,0.00,,---,0.00,VWS V13.01,2013-07-23 14:10:00,
2013-07-23 10:15:00,85.9,76.7,30.05,South,178,0.0,6.0,74,0.00,,---,0.00,VWS V13.01,2013-07-23 14:15:00,
2013-07-23 10:21:00,86.3,76.6,30.05,SSW,213,0.0,6.0,73,0.00,,---,0.00,VWS V13.01,2013-07-23 14:21:00,
2013-07-23 10:26:00,86.5,76.8,30.05,South,185,0.0,6.0,73,0.00,,---,0.00,VWS V13.01,2013-07-23 14:26:00,
2013-07-23 10:31:00,86.8,77.1,30.05,SSW,202,0.0,0.0,73,0.00,,---,0.00,VWS V13.01,2013-07-23 14:31:00,
2013-07-23 10:36:00,87.0,77.7,30.05,SSW,192,0.0,0.0,74,0.00,,---,0.00,VWS V13.01,2013-07-23 14:36:00,
2013-07-23 10:41:00,86.7,77.0,30.05,WNW,294,0.0,0.0,73,0.00,,---,0.00,VWS V13.01,2013-07-23 14:41:00,
2013-07-23 10:46:00,86.8,77.5,30.05,South,180,0.0,1.0,74,0.00,,---,0.00,VWS V13.01,2013-07-23 14:46:00,
2013-07-23 10:51:00,87.0,76.9,30.05,SSW,202,0.0,1.0,72,0.00,,---,0.00,VWS V13.01,2013-07-23 14:51:00,
2013-07-23 10:56:00,87.2,77.5,30.05,SW,217,0.0,1.0,73,0.00,,---,0.00,VWS V13.01,2013-07-23 14:56:00,
2013-07-23 11:01:00,87.0,77.3,30.05,SW,221,0.0,0.0,73,0.00,,---,0.00,VWS V13.01,2013-07-23 15:01:00,
2013-07-23 11:06:00,87.3,77.2,30.04,SSE,167,0.0,0.0,72,0.00,,---,0.00,VWS V13.01,2013-07-23 15:06:00,
2013-07-23 11:11:00,87.4,76.8,30.04,South,180,0.0,1.0,71,0.00,,---,0.00,VWS V13.01,2013-07-23 15:11:00,
2013-07-23 11:16:00,87.4,77.3,30.05,SSE,153,0.0,1.0,72,0.00,,---,0.00,VWS V13.01,2013-07-23 15:16:00,
2013-07-23 11:21:00,87.1,76.6,30.05,WNW,289,0.0,1.0,71,0.00,,---,0.00,VWS V13.01,2013-07-23 15:21:00,
2013-07-23 11:26:00,87.3,78.0,30.04,SW,223,0.0,1.0,74,0.00,,---,0.00,VWS V13.01,2013-07-23 15:26:00,
2013-07-23 11:31:00,87.9,78.2,30.05,West,259,1.0,6.0,73,0.00,,---,0.00,VWS V13.01,2013-07-23 15:31:00,
2013-07-23 11:36:00,87.4,77.3,30.04,SSE,163,0.0,7.0,72,0.00,,---,0.00,VWS V13.01,2013-07-23 15:36:00,
2013-07-23 11:41:00,87.1,77.0,30.04,South,185,0.0,7.0,72,0.00,,---,0.00,VWS V13.01,2013-07-23 15:41:00,
2013-07-23 11:46:00,87.0,77.3,30.04,SSW,202,0.0,7.0,73,0.00,,---,0.00,VWS V13.01,2013-07-23 15:46:00,
2013-07-23 11:51:00,87.7,77.6,30.04,SSW,205,0.0,7.0,72,0.00,,---,0.00,VWS V13.01,2013-07-23 15:51:00,
2013-07-23 11:56:00,87.9,77.3,30.04,West,260,4.0,7.0,71,0.00,,---,0.00,VWS V13.01,2013-07-23 15:56:00,
2013-07-23 12:01:00,87.6,77.0,30.04,South,178,0.0,4.0,71,0.00,,---,0.00,VWS V13.01,2013-07-23 16:01:00,
2013-07-23 12:06:00,87.6,77.5,30.04,West,267,0.0,4.0,72,0.00,,---,0.00,VWS V13.01,2013-07-23 16:06:00,
2013-07-23 12:11:00,87.9,77.3,30.04,WNW,286,0.0,4.0,71,0.00,,---,0.00,VWS V13.01,2013-07-23 16:11:00,
2013-07-23 12:16:00,88.1,77.5,30.04,SW,233,0.0,4.0,71,0.00,,---,0.00,VWS V13.01,2013-07-23 16:16:00,
2013-07-23 12:21:00,88.2,78.0,30.04,SW,219,0.0,4.0,72,0.00,,---,0.00,VWS V13.01,2013-07-23 16:21:00,
2013-07-23 12:26:00,87.7,77.1,30.04,WSW,246,1.0,6.0,71,0.00,,---,0.00,VWS V13.01,2013-07-23 16:26:00,
2013-07-23 12:31:00,87.7,77.6,30.03,South,171,0.0,2.0,72,0.00,,---,0.00,VWS V13.01,2013-07-23 16:31:00,
2013-07-23 12:36:00,88.1,77.5,30.03,WNW,288,0.0,4.0,71,0.00,,---,0.00,VWS V13.01,2013-07-23 16:36:00,
2013-07-23 12:41:00,87.8,77.7,30.03,WNW,282,0.0,4.0,72,0.00,,---,0.00,VWS V13.01,2013-07-23 16:41:00,
2013-07-23 12:46:00,87.9,77.8,30.03,West,279,0.0,4.0,72,0.00,,---,0.00,VWS V13.01,2013-07-23 16:46:00,
2013-07-23 12:51:00,87.8,77.7,30.03,SSW,198,0.0,4.0,72,0.00,,---,0.00,VWS V13.01,2013-07-23 16:51:00,
2013-07-23 12:56:00,87.7,77.1,30.03,WNW,283,0.0,7.0,71,0.00,,---,0.00,VWS V13.01,2013-07-23 16:56:00,
2013-07-23 13:01:00,88.1,77.9,30.03,NW,306,0.0,1.0,72,0.00,,---,0.00,VWS V13.01,2013-07-23 17:01:00,
2013-07-23 13:06:00,87.9,77.8,30.03,ESE,117,0.0,3.0,72,0.00,,---,0.00,VWS V13.01,2013-07-23 17:06:00,
2013-07-23 13:11:00,88.0,77.8,30.03,SW,223,0.0,7.0,72,0.00,,---,0.00,VWS V13.01,2013-07-23 17:11:00,
2013-07-23 13:16:00,87.8,77.2,30.03,WNW,296,3.0,9.0,71,0.00,,---,0.00,VWS V13.01,2013-07-23 17:16:00,
2013-07-23 13:21:00,87.0,77.3,30.03,SSE,163,0.0,9.0,73,0.00,,---,0.00,VWS V13.01,2013-07-23 17:21:00,
2013-07-23 13:26:00,87.5,77.8,30.03,South,178,0.0,9.0,73,0.00,,---,0.00,VWS V13.01,2013-07-23 17:26:00,
2013-07-23 13:31:00,88.1,77.9,30.03,West,278,0.0,5.0,72,0.00,,---,0.00,VWS V13.01,2013-07-23 17:31:00,
2013-07-23 13:36:00,88.3,77.3,30.02,South,190,2.0,7.0,70,0.00,,---,0.00,VWS V13.01,2013-07-23 17:36:00,
2013-07-23 13:41:00,88.2,77.2,30.03,NW,313,2.0,10.0,70,0.00,,---,0.00,VWS V13.01,2013-07-23 17:41:00,
2013-07-23 13:46:00,88.6,77.6,30.03,SE,140,0.0,10.0,70,0.00,,---,0.00,VWS V13.01,2013-07-23 17:46:00,
2013-07-23 13:51:00,89.0,77.9,30.02,SSE,148,0.0,10.0,70,0.00,,---,0.00,VWS V13.01,2013-07-23 17:51:00,
2013-07-23 13:56:00,89.2,78.1,30.03,South,183,1.0,10.0,70,0.00,,---,0.00,VWS V13.01,2013-07-23 17:56:00,
2013-07-23 14:02:00,89.1,78.0,30.02,WNW,300,0.0,2.0,70,0.00,,---,0.00,VWS V13.01,2013-07-23 18:02:00,
2013-07-23 14:07:00,89.0,78.4,30.02,WNW,296,0.0,5.0,71,0.00,,---,0.00,VWS V13.01,2013-07-23 18:07:00,
2013-07-23 14:12:00,88.6,77.1,30.02,WSW,249,0.0,10.0,69,0.00,,---,0.00,VWS V13.01,2013-07-23 18:12:00,
2013-07-23 14:17:00,88.7,78.1,30.01,WSW,244,1.0,10.0,71,0.00,,---,0.00,VWS V13.01,2013-07-23 18:17:00,
2013-07-23 14:22:00,89.0,77.9,30.01,NW,310,0.0,10.0,70,0.00,,---,0.00,VWS V13.01,2013-07-23 18:22:00,
2013-07-23 14:27:00,89.2,77.3,30.01,South,171,0.0,10.0,68,0.00,,---,0.00,VWS V13.01,2013-07-23 18:27:00,
2013-07-23 14:32:00,89.1,77.6,30.01,NW,312,0.0,6.0,69,0.00,,---,0.00,VWS V13.01,2013-07-23 18:32:00,
2013-07-23 14:37:00,88.8,77.8,30.02,West,273,0.0,10.0,70,0.00,,---,0.00,VWS V13.01,2013-07-23 18:37:00,
2013-07-23 14:43:00,88.3,77.7,30.02,SSE,161,0.0,10.0,71,0.00,,---,0.00,VWS V13.01,2013-07-23 18:43:00,
2013-07-23 14:48:00,88.3,77.7,30.01,WSW,248,0.0,10.0,71,0.00,,---,0.00,VWS V13.01,2013-07-23 18:48:00,
2013-07-23 14:53:00,88.3,77.7,30.01,South,186,0.0,10.0,71,0.00,,---,0.00,VWS V13.01,2013-07-23 18:53:00,
2013-07-23 14:58:00,88.2,77.6,30.01,NW,307,0.0,10.0,71,0.00,,---,0.00,VWS V13.01,2013-07-23 18:58:00,
2013-07-23 15:03:00,88.0,77.4,30.01,South,184,0.0,1.0,71,0.00,,---,0.00,VWS V13.01,2013-07-23 19:03:00,
2013-07-23 15:09:00,87.4,76.8,30.01,WSW,240,0.0,1.0,71,0.00,,---,0.00,VWS V13.01,2013-07-23 19:09:00,
2013-07-23 15:14:00,86.4,76.3,30.01,West,274,0.0,10.0,72,0.00,,---,0.00,VWS V13.01,2013-07-23 19:14:00,
2013-07-23 15:19:00,86.5,77.2,30.01,West,281,0.0,10.0,74,0.00,,---,0.00,VWS V13.01,2013-07-23 19:19:00,
2013-07-23 15:24:00,86.5,76.8,30.00,WNW,285,0.0,10.0,73,0.00,,---,0.00,VWS V13.01,2013-07-23 19:24:00,
2013-07-23 15:30:00,86.5,76.8,30.00,SSW,198,0.0,10.0,73,0.00,,---,0.00,VWS V13.01,2013-07-23 19:30:00,
2013-07-23 15:35:00,86.7,77.0,30.00,West,259,1.0,7.0,73,0.00,,---,0.00,VWS V13.01,2013-07-23 19:35:00,
2013-07-23 15:40:00,86.9,77.6,29.99,West,271,0.0,7.0,74,0.00,,---,0.00,VWS V13.01,2013-07-23 19:40:00,
2013-07-23 15:45:00,87.3,78.0,29.99,WSW,248,0.0,7.0,74,0.00,,---,0.00,VWS V13.01,2013-07-23 19:45:00,
2013-07-23 15:50:00,87.2,77.9,29.99,WSW,248,0.0,11.0,74,0.00,,---,0.00,VWS V13.01,2013-07-23 19:50:00,
2013-07-23 15:56:00,87.1,77.4,29.99,South,186,0.0,11.0,73,0.00,,---,0.00,VWS V13.01,2013-07-23 19:56:00,
2013-07-23 16:01:00,86.5,76.8,29.99,WNW,302,2.0,6.0,73,0.00,,---,0.00,VWS V13.01,2013-07-23 20:01:00,
2013-07-23 16:06:00,86.1,76.8,29.99,NNW,333,0.0,6.0,74,0.00,,---,0.00,VWS V13.01,2013-07-23 20:06:00,
2013-07-23 16:12:00,86.2,76.9,29.99,NW,313,0.0,6.0,74,0.00,,---,0.00,VWS V13.01,2013-07-23 20:12:00,
2013-07-23 16:17:00,86.0,77.2,29.99,SSW,193,0.0,13.0,75,0.00,,---,0.00,VWS V13.01,2013-07-23 20:17:00,
2013-07-23 16:23:00,86.4,77.5,29.99,West,267,0.0,13.0,75,0.00,,---,0.00,VWS V13.01,2013-07-23 20:23:00,
2013-07-23 16:28:00,86.4,76.7,29.98,WSW,252,0.0,13.0,73,0.00,,---,0.00,VWS V13.01,2013-07-23 20:28:00,
2013-07-23 16:33:00,86.3,77.4,29.98,West,278,0.0,0.0,75,0.00,,---,0.00,VWS V13.01,2013-07-23 20:33:00,
2013-07-23 16:38:00,86.4,77.5,29.99,WSW,248,0.0,0.0,75,0.00,,---,0.00,VWS V13.01,2013-07-23 20:38:00,
2013-07-23 16:44:00,86.5,77.2,29.99,WNW,295,3.0,10.0,74,0.00,,---,0.00,VWS V13.01,2013-07-23 20:44:00,
2013-07-23 16:49:00,86.6,77.3,29.99,West,275,0.0,10.0,74,0.00,,---,0.00,VWS V13.01,2013-07-23 20:49:00,
2013-07-23 16:54:00,86.5,76.8,29.99,WNW,303,0.0,10.0,73,0.00,,---,0.00,VWS V13.01,2013-07-23 20:54:00,
2013-07-23 16:59:00,86.2,76.5,29.98,WNW,286,0.0,10.0,73,0.00,,---,0.00,VWS V13.01,2013-07-23 20:59:00,
2013-07-23 17:04:00,85.8,76.6,29.98,West,269,0.0,7.0,74,0.00,,---,0.00,VWS V13.01,2013-07-23 21:04:00,
2013-07-23 17:10:00,85.7,77.3,29.98,West,277,0.0,7.0,76,0.00,,---,0.00,VWS V13.01,2013-07-23 21:10:00,
2013-07-23 17:15:00,85.6,76.8,29.98,SW,223,0.0,7.0,75,0.00,,---,0.00,VWS V13.01,2013-07-23 21:15:00,
2013-07-23 17:21:00,85.6,77.2,29.98,WNW,283,0.0,7.0,76,0.00,,---,0.00,VWS V13.01,2013-07-23 21:21:00,
2013-07-23 17:26:00,85.6,77.2,29.98,SW,224,0.0,7.0,76,0.00,,---,0.00,VWS V13.01,2013-07-23 21:26:00,
2013-07-23 17:31:00,85.8,77.4,29.98,WNW,284,0.0,1.0,76,0.00,,---,0.00,VWS V13.01,2013-07-23 21:31:00,
2013-07-23 17:37:00,85.5,76.3,29.98,NW,321,0.0,1.0,74,0.00,,---,0.00,VWS V13.01,2013-07-23 21:37:00,
2013-07-23 17:42:00,85.4,76.6,29.98,West,276,0.0,1.0,75,0.00,,---,0.00,VWS V13.01,2013-07-23 21:42:00,
2013-07-23 17:48:00,85.3,76.5,29.98,WNW,298,0.0,1.0,75,0.00,,---,0.00,VWS V13.01,2013-07-23 21:48:00,
2013-07-23 17:53:00,85.0,75.4,29.98,West,279,0.0,1.0,73,0.00,,---,0.00,VWS V13.01,2013-07-23 21:53:00,
2013-07-23 17:58:00,85.0,75.8,29.98,West,277,0.0,1.0,74,0.00,,---,0.00,VWS V13.01,2013-07-23 21:58:00,
2013-07-23 18:03:00,85.2,76.0,29.97,SW,217,0.0,0.0,74,0.00,,---,0.00,VWS V13.01,2013-07-23 22:03:00,
2013-07-23 18:08:00,85.2,75.6,29.96,SW,219,0.0,0.0,73,0.00,,---,0.00,VWS V13.01,2013-07-23 22:08:00,
2013-07-23 18:14:00,85.4,76.2,29.96,SW,219,0.0,0.0,74,0.00,,---,0.00,VWS V13.01,2013-07-23 22:14:00,
2013-07-23 18:19:00,85.4,75.8,29.96,SW,234,0.0,0.0,73,0.00,,---,0.00,VWS V13.01,2013-07-23 22:19:00,
2013-07-23 18:24:00,85.3,76.1,29.96,SW,228,0.0,0.0,74,0.00,,---,0.00,VWS V13.01,2013-07-23 22:24:00,
2013-07-23 18:29:00,85.3,76.1,29.96,SW,232,0.0,0.0,74,0.00,,---,0.00,VWS V13.01,2013-07-23 22:29:00,
2013-07-23 18:35:00,85.4,75.8,29.95,SW,234,0.0,0.0,73,0.00,,---,0.00,VWS V13.01,2013-07-23 22:35:00,
2013-07-23 18:40:00,85.3,76.1,29.95,SW,231,0.0,0.0,74,0.00,,---,0.00,VWS V13.01,2013-07-23 22:40:00,
2013-07-23 18:45:00,85.2,76.0,29.95,West,259,0.0,0.0,74,0.00,,---,0.00,VWS V13.01,2013-07-23 22:45:00,
2013-07-23 18:50:00,85.0,75.8,29.95,West,264,0.0,0.0,74,0.00,,---,0.00,VWS V13.01,2013-07-23 22:50:00,
2013-07-23 18:55:00,84.8,76.0,29.95,West,263,0.0,0.0,75,0.00,,---,0.00,VWS V13.01,2013-07-23 22:55:00,
2013-07-23 19:00:00,84.7,75.9,29.95,West,259,0.0,0.0,75,0.00,,---,0.00,VWS V13.01,2013-07-23 23:00:00,
2013-07-23 19:06:00,84.7,75.9,29.95,NW,315,0.0,1.0,75,0.00,,---,0.00,VWS V13.01,2013-07-23 23:06:00,
2013-07-23 19:11:00,84.7,75.9,29.95,WNW,292,0.0,1.0,75,0.00,,---,0.00,VWS V13.01,2013-07-23 23:11:00,
2013-07-23 19:16:00,84.8,76.0,29.95,West,260,0.0,1.0,75,0.00,,---,0.00,VWS V13.01,2013-07-23 23:16:00,
2013-07-23 19:21:00,84.9,75.7,29.95,WNW,295,0.0,1.0,74,0.00,,---,0.00,VWS V13.01,2013-07-23 23:21:00,
2013-07-23 19:26:00,84.6,75.8,29.95,West,272,0.0,1.0,75,0.00,,---,0.00,VWS V13.01,2013-07-23 23:26:00,
2013-07-23 19:31:00,84.3,75.5,29.95,West,277,0.0,0.0,75,0.00,,---,0.00,VWS V13.01,2013-07-23 23:31:00,
2013-07-23 19:36:00,84.1,75.7,29.95,West,277,0.0,0.0,76,0.00,,---,0.00,VWS V13.01,2013-07-23 23:36:00,
2013-07-23 19:41:00,84.1,75.7,29.95,West,278,0.0,3.0,76,0.00,,---,0.00,VWS V13.01,2013-07-23 23:41:00,
2013-07-23 19:47:00,84.1,75.7,29.95,South,182,0.0,3.0,76,0.00,,---,0.00,VWS V13.01,2013-07-23 23:47:00,
2013-07-23 19:53:00,84.0,76.0,29.95,WNW,300,0.0,3.0,77,0.00,,---,0.00,VWS V13.01,2013-07-23 23:53:00,
2013-07-23 19:58:00,83.8,76.2,29.94,West,281,0.0,3.0,78,0.00,,---,0.00,VWS V13.01,2013-07-23 23:58:00,
2013-07-23 20:03:00,83.5,75.5,29.94,West,281,0.0,0.0,77,0.00,,---,0.00,VWS V13.01,2013-07-24 00:03:00,
2013-07-23 20:09:00,83.3,75.7,29.94,WNW,287,0.0,0.0,78,0.00,,---,0.00,VWS V13.01,2013-07-24 00:09:00,
2013-07-23 20:14:00,83.0,75.4,29.94,NW,304,0.0,0.0,78,0.00,,---,0.00,VWS V13.01,2013-07-24 00:14:00,
2013-07-23 20:19:00,82.9,75.3,29.94,WNW,290,0.0,0.0,78,0.00,,---,0.00,VWS V13.01,2013-07-24 00:19:00,
2013-07-23 20:24:00,82.7,75.2,29.94,SW,236,0.0,0.0,78,0.00,,---,0.00,VWS V13.01,2013-07-24 00:24:00,
2013-07-23 20:30:00,82.6,75.4,29.94,WSW,244,0.0,0.0,79,0.00,,---,0.00,VWS V13.01,2013-07-24 00:30:00,
2013-07-23 20:35:00,82.4,75.2,29.94,West,263,0.0,0.0,79,0.00,,---,0.00,VWS V13.01,2013-07-24 00:35:00,
2013-07-23 20:40:00,82.3,75.5,29.94,WSW,250,0.0,0.0,80,0.00,,---,0.00,VWS V13.01,2013-07-24 00:40:00,
2013-07-23 20:45:00,82.3,75.5,29.93,WNW,282,0.0,0.0,80,0.00,,---,0.00,VWS V13.01,2013-07-24 00:45:00,
2013-07-23 20:50:00,82.2,75.4,29.94,West,277,0.0,0.0,80,0.00,,---,0.00,VWS V13.01,2013-07-24 00:50:00,
2013-07-23 20:56:00,82.1,75.3,29.94,WNW,287,0.0,0.0,80,0.00,,---,0.00,VWS V13.01,2013-07-24 00:56:00,
2013-07-23 21:01:00,82.0,74.5,29.94,WNW,288,0.0,0.0,78,0.00,,---,0.00,VWS V13.01,2013-07-24 01:01:00,
2013-07-23 21:06:00,82.0,74.5,29.94,WNW,296,0.0,0.0,78,0.00,,---,0.00,VWS V13.01,2013-07-24 01:06:00,
2013-07-23 21:12:00,82.0,74.1,29.94,WNW,286,0.0,0.0,77,0.00,,---,0.00,VWS V13.01,2013-07-24 01:12:00,
2013-07-23 21:17:00,82.0,74.1,29.94,West,281,0.0,1.0,77,0.00,,---,0.00,VWS V13.01,2013-07-24 01:17:00,
2013-07-23 21:22:00,81.9,74.0,29.94,SW,234,0.0,1.0,77,0.00,,---,0.00,VWS V13.01,2013-07-24 01:22:00,
2013-07-23 21:27:00,81.9,74.0,29.95,West,265,0.0,1.0,77,0.00,,---,0.00,VWS V13.01,2013-07-24 01:27:00,
2013-07-23 21:32:00,81.9,74.4,29.95,West,268,0.0,0.0,78,0.00,,---,0.00,VWS V13.01,2013-07-24 01:32:00,
2013-07-23 21:38:00,81.9,74.0,29.95,West,275,0.0,0.0,77,0.00,,---,0.00,VWS V13.01,2013-07-24 01:38:00,
2013-07-23 21:43:00,81.9,74.0,29.95,West,274,0.0,0.0,77,0.00,,---,0.00,VWS V13.01,2013-07-24 01:43:00,
2013-07-23 21:49:00,81.9,74.0,29.96,WSW,253,0.0,1.0,77,0.00,,---,0.00,VWS V13.01,2013-07-24 01:49:00,
2013-07-23 21:54:00,82.0,74.5,29.96,West,273,0.0,6.0,78,0.00,,---,0.00,VWS V13.01,2013-07-24 01:54:00,
2013-07-23 21:59:00,82.0,74.1,29.96,West,259,0.0,7.0,77,0.00,,---,0.00,VWS V13.01,2013-07-24 01:59:00,
2013-07-23 22:05:00,82.1,74.2,29.96,South,189,0.0,3.0,77,0.00,,---,0.00,VWS V13.01,2013-07-24 02:05:00,
2013-07-23 22:10:00,82.1,74.6,29.96,SW,230,0.0,3.0,78,0.00,,---,0.00,VWS V13.01,2013-07-24 02:10:00,
2013-07-23 22:15:00,82.1,74.6,29.96,West,276,0.0,5.0,78,0.00,,---,0.00,VWS V13.01,2013-07-24 02:15:00,
2013-07-23 22:20:00,82.2,75.0,29.96,WNW,284,0.0,5.0,79,0.00,,---,0.00,VWS V13.01,2013-07-24 02:20:00,
2013-07-23 22:26:00,82.1,74.9,29.96,West,281,0.0,5.0,79,0.00,,---,0.00,VWS V13.01,2013-07-24 02:26:00,
2013-07-23 22:31:00,82.1,75.3,29.96,West,267,0.0,0.0,80,0.00,,---,0.00,VWS V13.01,2013-07-24 02:31:00,
2013-07-23 22:38:00,82.1,75.3,29.97,West,263,0.0,0.0,80,0.00,,---,0.00,VWS V13.01,2013-07-24 02:38:00,
2013-07-23 22:43:00,82.1,75.3,29.97,WNW,282,0.0,0.0,80,0.00,,---,0.00,VWS V13.01,2013-07-24 02:43:00,
2013-07-23 22:48:00,82.1,75.3,29.97,WNW,282,0.0,0.0,80,0.00,,---,0.00,VWS V13.01,2013-07-24 02:48:00,
2013-07-23 22:53:00,82.0,75.6,29.97,WNW,286,0.0,6.0,81,0.00,,---,0.00,VWS V13.01,2013-07-24 02:53:00,
2013-07-23 22:59:00,81.8,75.0,29.98,WNW,283,0.0,6.0,80,0.00,,---,0.00,VWS V13.01,2013-07-24 02:59:00,
2013-07-23 23:04:00,81.8,75.4,29.98,West,266,0.0,3.0,81,0.00,,---,0.00,VWS V13.01,2013-07-24 03:04:00,
2013-07-23 23:09:00,81.7,75.3,29.98,West,266,0.0,3.0,81,0.00,,---,0.00,VWS V13.01,2013-07-24 03:09:00,
2013-07-23 23:14:00,81.7,75.3,29.98,West,269,0.0,3.0,81,0.00,,---,0.00,VWS V13.01,2013-07-24 03:14:00,
2013-07-23 23:19:00,81.6,75.6,29.98,WNW,290,4.0,4.0,82,0.00,,---,0.00,VWS V13.01,2013-07-24 03:19:00,
2013-07-23 23:24:00,81.5,75.1,29.98,WNW,288,0.0,4.0,81,0.00,,---,0.00,VWS V13.01,2013-07-24 03:24:00,
2013-07-23 23:30:00,81.5,75.1,29.98,West,279,2.0,7.0,81,0.00,,---,0.00,VWS V13.01,2013-07-24 03:30:00,
2013-07-23 23:35:00,81.6,75.2,29.98,West,268,0.0,0.0,81,0.00,,---,0.00,VWS V13.01,2013-07-24 03:35:00,
2013-07-23 23:40:00,81.6,75.2,29.98,WNW,292,0.0,1.0,81,0.00,,---,0.00,VWS V13.01,2013-07-24 03:40:00,
2013-07-23 23:45:00,81.7,75.3,29.98,West,271,0.0,1.0,81,0.00,,---,0.00,VWS V13.01,2013-07-24 03:45:00,
2013-07-23 23:50:00,81.6,75.2,29.98,WNW,296,0.0,1.0,81,0.00,,---,0.00,VWS V13.01,2013-07-24 03:50:00,
2013-07-23 23:56:00,81.8,75.4,29.98,West,277,0.0,1.0,81,0.00,,---,0.00,VWS V13.01,2013-07-24 03:56:00,